Regional Weather Roundup
Issued by NWS

Home | Current Version | Previous Version | Text Only | Print | Product List | Glossary Off
Versions: 1 2 3 4 5 6 7 8 9 10 11 12 13 14 15 16 17 18 19 20 21 22 23 24 25 26 27 28 29 30 31 32 33 34 35 36 37 38 39 40 41 42 43 44 45 46 47 48 49 50

000
ASUS45 KBOI 021310
RWRID

IDAHO REGIONAL WEATHER ROUNDUP
NATIONAL WEATHER SERVICE BOISE ID
700 AM MDT THU JUL 02 2015

NOTE: "FAIR" INDICATES FEW OR NO CLOUDS BELOW 12000 FEET
WITH NO SIGNIFICANT WEATHER AND/OR OBSTRUCTIONS TO VISIBILITY

IDZ012-014-021400-
SOUTHWEST IDAHO


CITY           SKY/WX    TMP DP  RH WIND       PRES   REMARKS
BOISE          CLEAR     71  43  36 SE6       30.00R
CALDWELL       CLEAR     64  46  52 CALM      30.00R
MOUNTAIN HOME  CLEAR     73  44  35 NW10      29.99R
$$

IDZ016-017-021400-
SOUTHCENTRAL IDAHO


CITY           SKY/WX    TMP DP  RH WIND       PRES   REMARKS
BURLEY         CLEAR     62  50  64 E3        30.07R
JEROME         CLEAR     65  46  50 E5        30.06R
TWIN FALLS     CLEAR     72  43  35 S13       30.05R
$$

IDZ019>023-021400-
SOUTHEAST IDAHO


CITY           SKY/WX    TMP DP  RH WIND       PRES   REMARKS
IDAHO FALLS    MOSUNNY   59  53  80 N8        30.12R
POCATELLO      CLEAR     62  55  77 SE3       30.11R
REXBURG        MOSUNNY   58  51  78 NE6       30.13R
$$

IDZ006-010-011-018-031-032-021400-
CENTRAL IDAHO MOUNTAINS


CITY           SKY/WX    TMP DP  RH WIND       PRES   REMARKS
MCCALL         CLEAR     53  45  74 CALM      30.16R HAZE
HAILEY         PTCLDY    63  37  39 NW10      30.19
STANLEY          N/A     40  33  76 S5        30.31R
SALMON         PTCLDY    55  45  67 CALM      30.15R
CHALLIS        CLEAR     62  41  46 CALM      30.19R
$$

IDZ002-004-006-007-026-021400-
NORTHERN IDAHO


CITY           SKY/WX    TMP DP  RH WIND       PRES   REMARKS
LEWISTON       CLEAR     69  50  50 CALM      29.97R
LOWELL           N/A     59  53  80 NW3       30.07R
COEUR D`ALENE  CLEAR     64  52  63 NE7       30.03R
MULLAN PASS    CLEAR     62  41  46 SE10      30.25R
$$


USA.gov is the U.S. government's official web portal to all federal, state and local government web resources and services.